Regional Weather Roundup
Issued by NWS

Home | Current Version | Previous Version | Graphics & Text | Print | Product List | Glossary On
Versions: 1 2 3 4 5 6 7 8 9 10 11 12 13 14 15 16 17 18 19 20 21 22 23 24 25 26 27 28 29 30 31 32 33 34 35 36 37 38 39 40 41 42 43 44 45 46 47 48 49 50
000
ASUS43 KOAX 021810
RWRNE

WEATHER ROUNDUP FOR NEBRASKA
NATIONAL WEATHER SERVICE OMAHA NE
100 PM CDT TUE SEP 02 2014

NOTES: SATELLITE DATA IS BEING USED TO AUGMENT CLOUD COVER ABOVE
       12000 FEET.
       "FAIR" INDICATES FEW OR NO CLOUDS BELOW 12,000 FEET WITH NO
       SIGNIFICANT WEATHER AND/OR OBSTRUCTIONS TO VISIBILITY.

  * THESE STATIONS DO NOT REPORT WEATHER SUCH AS RAIN...SNOW OR FOG.

NEZ001>004-019>022-054>056-021900-
NEBRASKA PANHANDLE

CITY           SKY/WX    TMP DP  RH WIND       PRES   REMARKS
SCOTTSBLUFF    SUNNY     82  44  26 SW12      29.99F
6HR MIN TEMP:  42; 6HR MAX TEMP:  82;

ALLIANCE       SUNNY     77  50  38 S15       30.00F
6HR MIN TEMP:  38; 6HR MAX TEMP:  77;

CHADRON        SUNNY     79  46  31 W13G20    29.94F
6HR MIN TEMP:  43; 6HR MAX TEMP:  79;

KIMBALL        SUNNY     77  46  33 S8        30.04F
SIDNEY         SUNNY     76  51  41 S15       30.05F
6HR MIN TEMP:  44; 6HR MAX TEMP:  76;

$$

NEZ057>060-069>072-079>082-021900-
SOUTHWEST NEBRASKA

CITY           SKY/WX    TMP DP  RH WIND       PRES   REMARKS
NORTH PLATTE   MOSUNNY   73  61  65 SW10      30.02F
6HR MIN TEMP:  44; 6HR MAX TEMP:  75;

IMPERIAL       SUNNY     75  60  59 S13       30.04F
6HR MIN TEMP:  50; 6HR MAX TEMP:  75;

LEXINGTON      SUNNY     76  62  62 SW8       30.03F
MCCOOK         SUNNY     80  58  46 S7        30.03F
6HR MIN TEMP:  52; 6HR MAX TEMP:  81;

OGALLALA       SUNNY     73  59  61 S9        30.03F
$$

NEZ005>010-023>029-035>040-094-021900-
NORTH CENTRAL NEBRASKA

CITY           SKY/WX    TMP DP  RH WIND       PRES   REMARKS
VALENTINE      SUNNY     77  45  32 SW8       29.97F
6HR MIN TEMP:  45; 6HR MAX TEMP:  78;

AINSWORTH      SUNNY     75  47  36 SW10      29.99F
BROKEN BOW     SUNNY     76  55  48 SW10      30.01F
6HR MIN TEMP:  50; 6HR MAX TEMP:  77;

O`NEILL        SUNNY     76  51  41 SW10      29.99F
ORD            SUNNY     72  53  51 SW6       30.00F
6HR MIN TEMP:  48; 6HR MAX TEMP:  72;

THEDFORD       SUNNY     77  54  45 S13G20    30.01F
$$

NEZ041-046>049-061>064-073>077-083>087-021900-
SOUTH CENTRAL NEBRASKA

CITY           SKY/WX    TMP DP  RH WIND       PRES   REMARKS
GRAND ISLAND   SUNNY     78  55  44 W9        30.02F
6HR MIN TEMP:  53; 6HR MAX TEMP:  78;

AURORA         SUNNY     74  55  51 NW5       30.01F
HASTINGS       SUNNY     74  57  55 W7        30.03S
6HR MIN TEMP:  53; 6HR MAX TEMP:  75;

HEBRON         SUNNY     77  55  47 CALM      30.03S
HOLDREGE       SUNNY     75  60  60 CALM      30.03F
KEARNEY *      SUNNY     73  57  56 SW7       30.03F
YORK           SUNNY     73 N/A N/A SW3       30.02F
$$

NEZ011>018-030>034-042>045-021900-
NORTHEAST NEBRASKA

CITY           SKY/WX    TMP DP  RH WIND       PRES   REMARKS
NORFOLK        SUNNY     72  58  61 SW9       29.99F
6HR MIN TEMP:  54; 6HR MAX TEMP:  72;

ALBION         SUNNY     72  56  57 SW7       30.01F
BLAIR          SUNNY     73  58  60 CALM      30.00S
FREMONT        SUNNY     74  56  53 SW5       30.01S
TEKAMAH        SUNNY     74  60  61 VRB5      29.99S
6HR MIN TEMP:  55; 6HR MAX TEMP:  74;

WAYNE          SUNNY     74  59  57 W5        29.99S
$$

NEZ050>053-065>068-078-088>093-021900-
SOUTHEAST NEBRASKA

CITY           SKY/WX    TMP DP  RH WIND       PRES   REMARKS
LINCOLN        SUNNY     77  57  50 VRB5      30.02S
6HR MIN TEMP:  55; 6HR MAX TEMP:  77;

OMAHA EPPLEY   MOSUNNY   75  56  51 S3        29.99F
6HR MIN TEMP:  57; 6HR MAX TEMP:  75;

BEATRICE       SUNNY     77  59  52 W7        30.02R
FALLS CITY     SUNNY     80  61  52 VRB5      30.01R
6HR MIN TEMP:  60; 6HR MAX TEMP:  80;

NEBRASKA CITY  SUNNY     75  58  55 CALM      30.01S
PLATTSMOUTH    SUNNY     76  57  51 NW3       30.01R
$$

NEZ044-045-051>053-067-021900-
OMAHA AREA

CITY           SKY/WX    TMP DP  RH WIND       PRES   REMARKS
OMAHA EPPLEY   MOSUNNY   75  56  51 S3        29.99F
6HR MIN TEMP:  57; 6HR MAX TEMP:  75;

BLAIR          SUNNY     73  58  60 CALM      30.00S
FREMONT        SUNNY     74  56  53 SW5       30.01S
MILLARD        SUNNY     75  57  54 CALM      30.00S
OFFUTT AFB     SUNNY     76  59  56 W6        29.99F
PLATTSMOUTH    SUNNY     76  57  51 NW3       30.01R
WAHOO          FAIR      74  56  53 SW5       30.00S
$$


USA.gov is the U.S. government's official web portal to all federal, state and local government web resources and services.